Content
SEND FEEDBACK

Daily
Averages
Monthly
Summary
United States of America

ALLISON, IOWA


Home > North America > United States > Iowa
Elevation: 1021 feet     Latitude: 42 45N     Longitude: 092 46W

WEATHER
 
SELECT A DAY
Number of Records: 414,285;   Date Range: 4/23/95 - 9/10/14
 
SHARE

PRINT THIS DATA

[ ← Previous Day ]
WEATHER ALMANAC - FEBRUARY 13, 2013
[ Next Day → ]
[ °C ]   °F
Weather ElementAverageHighLow
Temperature32.5 °F39.2 °F (3:35 pm)24.8 °F (4:15 am)
Dewpoint27.9 °F32 °F (2:15 pm)21.2 °F (6:15 am)
Humidity83.3 %93 % (1:55 am)75 % (12:15 pm)
Barometer29.72 in29.83 in (12:35 am)29.59 in (9:55 pm)
Wind Speed7.9 mph13.8 mph (11:35 pm)
Wind Gust20.7 mph (11:55 pm)
Weather ElementAverage
Visibility9.9 mi
Wind DirectionWSW (244.7 °)

Weather ElementTotal
Precipitation---
Heating Degree Days33 (Base 65)
Averaged from 70 records on February 13, 2013
WEATHER CONDITIONS BREAKOUT
WIND DIRECTION BREAKOUT
WEATHER BY HOUR - FEBRUARY 13, 2013
[ °C ]   °F
Local TimeTemperatureDewpointHumidityBarometerVisibilityWind DirectionWind SpeedGust SpeedPrecipitationEventsConditions
12:35 AM30.2 °F26.6 °F86 %29.83 in10.0 miWest (280°)8.1 mphClear
12:55 AM28.4 °F24.8 °F86 %29.83 in10.0 miWest (280°)5.8 mphClear
1:15 AM28.4 °F24.8 °F86 %29.82 in10.0 miWest (280°)5.8 mphClear
1:35 AM28.4 °F24.8 °F86 %29.81 in10.0 miWNW (290°)4.6 mphClear
1:55 AM26.6 °F24.8 °F93 %29.81 in10.0 miWNW (300°)5.8 mphClear
2:15 AM26.6 °F24.8 °F93 %29.81 in10.0 miWest (280°)5.8 mphClear
2:35 AM26.6 °F24.8 °F93 %29.80 in10.0 miWest (270°)4.6 mphClear
2:55 AM26.6 °F23.0 °F86 %29.80 in10.0 miWSW (250°)4.6 mphClear
3:15 AM26.6 °F23.0 °F86 %29.79 in10.0 miWest (260°)4.6 mphClear
3:35 AM26.6 °F23.0 °F86 %29.79 in10.0 miWest (280°)4.6 mphClear
3:55 AM26.6 °F23.0 °F86 %29.79 in10.0 miWNW (290°)5.8 mphClear
4:15 AM24.8 °F23.0 °F93 %29.79 in10.0 miWest (280°)6.9 mphClear
4:35 AM24.8 °F23.0 °F93 %29.78 in10.0 miWNW (290°)6.9 mphClear
4:55 AM24.8 °F23.0 °F93 %29.78 in10.0 miWest (280°)5.8 mphClear
5:15 AM24.8 °F23.0 °F93 %29.78 in10.0 miWest (280°)4.6 mphClear
5:35 AM24.8 °F23.0 °F93 %29.78 in9.0 miWest (280°)5.8 mphClear
6:15 AM24.8 °F21.2 °F86 %29.77 in10.0 miWNW (290°)5.8 mphClear
6:35 AM24.8 °F21.2 °F86 %29.77 in10.0 miWNW (290°)5.8 mphClear
6:55 AM24.8 °F21.2 °F86 %29.77 in9.0 miWest (280°)5.8 mphClear
7:15 AM24.8 °F21.2 °F86 %29.77 in7.0 miWest (280°)5.8 mphScattered Clouds
7:35 AM24.8 °F23.0 °F93 %29.77 in8.0 miWest (280°)5.8 mphMostly Cloudy
7:55 AM24.8 °F23.0 °F93 %29.77 in8.0 miWNW (290°)5.8 mphPartly Cloudy
8:15 AM26.6 °F23.0 °F86 %29.76 in9.0 miWest (270°)6.9 mphClear
8:35 AM26.6 °F23.0 °F86 %29.76 in10.0 miWNW (300°)9.2 mphClear
8:55 AM26.6 °F23.0 °F86 %29.76 in10.0 miWNW (290°)6.9 mphClear
9:15 AM28.4 °F23.0 °F80 %29.76 in10.0 miWest (280°)8.1 mphClear
9:35 AM28.4 °F24.8 °F86 %29.76 in10.0 miWest (280°)8.1 mphClear
9:55 AM30.2 °F24.8 °F80 %29.76 in10.0 miWest (270°)8.1 mphClear
10:15 AM32.0 °F26.6 °F80 %29.76 in10.0 miWest (270°)9.2 mphClear
10:35 AM32.0 °F26.6 °F80 %29.76 in10.0 miWest (260°)8.1 mphClear
10:55 AM32.0 °F26.6 °F80 %29.76 in10.0 miWSW (250°)8.1 mphClear
11:15 AM32.0 °F26.6 °F80 %29.75 in10.0 miSW (230°)9.2 mphMostly Cloudy
11:35 AM33.8 °F28.4 °F81 %29.75 in10.0 miSW (230°)8.1 mphOvercast
11:55 AM33.8 °F28.4 °F81 %29.74 in10.0 miWSW (240°)6.9 mphOvercast
12:15 PM35.6 °F28.4 °F75 %29.74 in10.0 miWSW (240°)9.2 mphOvercast
12:35 PM35.6 °F28.4 °F75 %29.73 in10.0 miWSW (240°)9.2 mphOvercast
12:55 PM35.6 °F30.2 °F81 %29.73 in10.0 miWSW (240°)9.2 mphOvercast
1:15 PM35.6 °F30.2 °F81 %29.73 in10.0 miWest (260°)10.4 mphOvercast
1:35 PM35.6 °F30.2 °F81 %29.73 in10.0 miWest (260°)9.2 mphOvercast
1:55 PM35.6 °F30.2 °F81 %29.72 in10.0 miWSW (250°)11.5 mphOvercast
2:15 PM35.6 °F32.0 °F87 %29.72 in10.0 miWSW (240°)9.2 mphOvercast
2:35 PM35.6 °F30.2 °F81 %29.71 in10.0 miSW (230°)9.2 mphOvercast
2:55 PM37.4 °F32.0 °F81 %29.70 in10.0 miSW (230°)8.1 mphOvercast
3:15 PM37.4 °F32.0 °F81 %29.70 in10.0 miSW (220°)8.1 mphOvercast
3:35 PM39.2 °F32.0 °F75 %29.69 in10.0 miSW (220°)6.9 mphMostly Cloudy
3:55 PM39.2 °F32.0 °F75 %29.68 in10.0 miSSW (210°)10.4 mphScattered Clouds
4:15 PM39.2 °F32.0 °F75 %29.68 in10.0 miSSW (210°)8.1 mph13.8 mphScattered Clouds
4:35 PM39.2 °F32.0 °F75 %29.68 in10.0 miSSW (210°)8.1 mphClear
4:55 PM39.2 °F32.0 °F75 %29.68 in10.0 miSSW (210°)8.1 mphPartly Cloudy
5:15 PM39.2 °F32.0 °F75 %29.68 in10.0 miSSW (210°)6.9 mphMostly Cloudy
5:35 PM37.4 °F32.0 °F81 %29.68 in10.0 miSouth (190°)8.1 mphOvercast
5:55 PM35.6 °F32.0 °F87 %29.67 in10.0 miSouth (180°)5.8 mphOvercast
6:15 PM35.6 °F32.0 °F87 %29.67 in10.0 miSouth (170°)8.1 mphOvercast
6:35 PM37.4 °F32.0 °F81 %29.66 in10.0 miSouth (170°)9.2 mphOvercast
6:55 PM37.4 °F32.0 °F81 %29.66 in10.0 miSouth (170°)9.2 mphOvercast
7:15 PM37.4 °F32.0 °F81 %29.65 in10.0 miSouth (180°)9.2 mphMostly Cloudy
7:35 PM37.4 °F32.0 °F81 %29.65 in10.0 miSouth (190°)9.2 mphOvercast
7:55 PM37.4 °F32.0 °F81 %29.64 in10.0 miSouth (190°)10.4 mphMostly Cloudy
8:15 PM37.4 °F32.0 °F81 %29.64 in10.0 miSSW (200°)10.4 mphMostly Cloudy
8:35 PM35.6 °F32.0 °F87 %29.63 in10.0 miSSW (200°)9.2 mphOvercast
8:55 PM37.4 °F32.0 °F81 %29.62 in10.0 miSSW (210°)9.2 mphRainLight Rain
9:15 PM37.4 °F32.0 °F81 %29.61 in10.0 miSSW (210°)9.2 mphOvercast
9:35 PM37.4 °F32.0 °F81 %29.61 in10.0 miSSW (200°)9.2 mphOvercast
9:55 PM35.6 °F32.0 °F87 %29.59 in10.0 miSouth (190°)8.1 mphOvercast
10:15 PM37.4 °F32.0 °F81 %29.60 in10.0 miSSW (210°)9.2 mphOvercast
10:35 PM39.2 °F32.0 °F75 %29.60 in10.0 miSW (230°)10.4 mphOvercast
10:55 PM37.4 °F32.0 °F81 %29.59 in10.0 miSW (230°)9.2 mphOvercast
11:15 PM37.4 °F32.0 °F81 %29.60 in10.0 miWSW (250°)11.5 mphOvercast
11:35 PM39.2 °F32.0 °F75 %29.60 in10.0 miWest (260°)13.8 mphOvercast
11:55 PM37.4 °F32.0 °F81 %29.60 in10.0 miWest (270°)13.8 mph20.7 mphOvercast
Hourly data recorded from KCCY, located miles away from Allison, Iowa







STORIES FROM OUR PARTNERS